Weather History for Luverne, MN

Change the Weather History Date:

Sunday, January 20, 2013

  Actual Average (KFSD) Record (KFSD)
Temperature  
Mean Temperature 6 °F 17 °F  
Max Temperature 12 °F 26 °F 57 °F (1944)
Min Temperature 1 °F 7 °F -24 °F (1954)
Degree Days  
Heating Degree Days 58 48  
Month to date heating degree days 978  
Since 1 July heating degree days 4111  
Cooling Degree Days 0 0  
Month to date cooling degree days 0  
Year to date cooling degree days 0  
Moisture  
Dew Point 0 °F    
Average Humidity 73    
Maximum Humidity 85    
Minimum Humidity 66    
Precipitation  
Precipitation 0.00 in 0.02 in 0.49 in (1937)
Month to date precipitation 0.36  
Year to date precipitation 0.36  
Snow  
Snow 0.00 in 0.20 in 5.30 in (1998)
Month to date snowfall 4.9  
Since 1 July snowfall 21.8  
Snow Depth -    
Sea Level Pressure  
Sea Level Pressure 30.34 in    
Wind  
Wind Speed 10 mph (NW)    
Max Wind Speed 20 mph    
Max Gust Speed 25 mph    
Visibility 7 miles    
Events Snow    
T = Trace of Precipitation, MM = Missing Value Source: NWS Daily Summary

Daily Weather History Graph

Daily Weather History Graph

Search for Another Location

Airport:

Trip Planner

Search our weather history database for the weather conditions in past years. The results will help you decide how hot, cold, wet, or windy it might be!

Date:

Astronomy

Jan. 20, 2013 Rise Set
Actual Time 7:51 AM CST 5:20 PM CST
Civil Twilight 7:20 AM CST 5:51 PM CST
Nautical Twilight 6:45 AM CST 6:27 PM CST
Astronomical Twilight 6:11 AM CST 7:01 PM CST
Moon 12:22 PM CST (1/20) 2:24 AM CST (1/20)
Length of Visible Light 10h 31m
Length of Day
9h 28m
Waxing Gibbous, 66% of the Moon is Illuminated
Jan 20
Waxing Gibbous
Jan 26
Full
Feb 3
Last Quarter
Feb 10
New
Feb 17
First Quarter

Hourly Weather History & Observations

Time (CST) Temp. Windchill Dew Point Humidity Pressure Visibility Wind Dir Wind Speed Gust Speed Precip Events Conditions
12:16 AM 6.8 °F -10.0 °F -2.2 °F 67% 30.32 in 10.0 mi NNW 13.8 mph - N/A   Clear
12:35 AM 6.8 °F -8.6 °F -0.4 °F 72% 30.33 in 10.0 mi NNW 11.5 mph 16.1 mph N/A   Clear
12:56 AM 6.8 °F -6.9 °F -2.2 °F 67% 30.33 in 10.0 mi NW 9.2 mph - N/A   Clear
1:16 AM 6.8 °F -10.0 °F -2.2 °F 67% 30.32 in 10.0 mi NNW 13.8 mph - N/A   Clear
1:35 AM 6.8 °F -8.6 °F -0.4 °F 72% 30.32 in 10.0 mi NW 11.5 mph - N/A   Clear
2:16 AM 5.0 °F -11.6 °F -2.2 °F 72% 30.33 in 10.0 mi NNW 12.7 mph - N/A   Clear
2:35 AM 5.0 °F -9.1 °F -4.0 °F 66% 30.33 in 10.0 mi NNW 9.2 mph - N/A   Clear
2:56 AM 5.0 °F -8.1 °F -2.2 °F 72% 30.34 in 10.0 mi NNW 8.1 mph - N/A   Clear
3:16 AM 5.0 °F -8.1 °F -2.2 °F 72% 30.34 in 10.0 mi North 8.1 mph - N/A   Scattered Clouds
3:35 AM 6.8 °F -6.9 °F -2.2 °F 67% 30.33 in 10.0 mi NNW 9.2 mph - N/A   Mostly Cloudy
3:56 AM 5.0 °F -8.1 °F -2.2 °F 72% 30.33 in 10.0 mi North 8.1 mph - N/A   Overcast
4:15 AM 5.0 °F -8.1 °F -2.2 °F 72% 30.32 in 10.0 mi North 8.1 mph - N/A   Overcast
4:36 AM 5.0 °F -5.6 °F -2.2 °F 72% 30.31 in 10.0 mi NNE 5.8 mph - N/A   Overcast
4:56 AM 5.0 °F -2.1 °F -4.0 °F 66% 30.31 in 10.0 mi NNE 3.5 mph - N/A   Mostly Cloudy
5:15 AM 5.0 °F -2.1 °F -4.0 °F 66% 30.31 in 10.0 mi North 3.5 mph - N/A   Scattered Clouds
5:36 AM 5.0 °F - -4.0 °F 66% 30.31 in 10.0 mi Calm Calm - N/A   Mostly Cloudy
5:56 AM 5.0 °F -5.6 °F -2.2 °F 72% 30.33 in 10.0 mi NNW 5.8 mph - N/A   Overcast
6:15 AM 6.8 °F -3.5 °F -2.2 °F 67% 30.33 in 10.0 mi NW 5.8 mph - N/A   Overcast
6:36 AM 6.8 °F -5.9 °F -0.4 °F 72% 30.34 in 4.0 mi NW 8.1 mph - N/A Snow Light Snow
6:56 AM 6.8 °F -3.5 °F -0.4 °F 72% 30.33 in 2.5 mi NNW 5.8 mph - N/A Snow Light Snow
7:15 AM 6.8 °F -2.0 °F 1.4 °F 79% 30.34 in 2.5 mi NW 4.6 mph - N/A Snow Light Snow
7:36 AM 6.8 °F -3.5 °F 1.4 °F 79% 30.34 in 2.0 mi NW 5.8 mph - N/A Snow Light Snow
7:56 AM 6.8 °F -2.0 °F 1.4 °F 79% 30.33 in 1.0 mi NNW 4.6 mph - N/A Snow Light Snow
8:15 AM 6.8 °F -2.0 °F 1.4 °F 79% 30.34 in 1.2 mi NNW 4.6 mph - N/A Snow Light Snow
8:36 AM 5.0 °F -2.1 °F 1.4 °F 85% 30.34 in 0.8 mi NNW 3.5 mph - N/A Snow Light Snow
8:56 AM 6.8 °F - 1.4 °F 79% 30.34 in 0.8 mi Calm Calm - N/A Snow Light Snow
9:15 AM 6.8 °F -2.0 °F 1.4 °F 79% 30.35 in 0.8 mi NNW 4.6 mph - N/A Snow Light Snow
9:36 AM 6.8 °F -2.0 °F 1.4 °F 79% 30.36 in 0.8 mi NNW 4.6 mph - N/A Snow Light Snow
9:56 AM 8.6 °F -2.6 °F 1.4 °F 73% 30.39 in 1.5 mi NW 6.9 mph - N/A Snow Light Snow
10:15 AM 8.6 °F -2.6 °F 1.4 °F 73% 30.40 in 0.8 mi NW 6.9 mph - N/A Snow Snow
10:36 AM 8.6 °F -4.7 °F 3.2 °F 79% 30.40 in 1.0 mi NW 9.2 mph - N/A Snow Light Snow
10:55 AM 8.6 °F -3.7 °F 3.2 °F 79% 30.41 in 1.2 mi WNW 8.1 mph - N/A Snow Light Snow
11:16 AM 8.6 °F -3.7 °F 1.4 °F 73% 30.41 in 3.0 mi NW 8.1 mph - N/A Snow Light Snow
11:36 AM 8.6 °F -3.7 °F 3.2 °F 79% 30.40 in 4.0 mi NW 8.1 mph - N/A   Haze
11:55 AM 10.4 °F -2.4 °F 3.2 °F 73% 30.39 in 5.0 mi WNW 9.2 mph - N/A Snow Light Snow
12:16 PM 10.4 °F -3.3 °F 3.2 °F 73% 30.39 in 4.0 mi NW 10.4 mph - N/A Snow Light Snow
12:36 PM 10.4 °F -4.1 °F 3.2 °F 73% 30.38 in 7.0 mi WNW 11.5 mph - N/A   Mostly Cloudy
12:56 PM 10.4 °F -4.8 °F 3.2 °F 73% 30.38 in 10.0 mi NW 12.7 mph - N/A   Mostly Cloudy
1:16 PM 10.4 °F -4.8 °F 3.2 °F 73% 30.36 in 10.0 mi WNW 12.7 mph - N/A   Scattered Clouds
1:36 PM 10.4 °F -4.8 °F 3.2 °F 73% 30.36 in 10.0 mi WNW 12.7 mph 16.1 mph N/A   Clear
1:56 PM 10.4 °F -4.8 °F 3.2 °F 73% 30.35 in 10.0 mi WNW 12.7 mph 16.1 mph N/A   Clear
2:16 PM 12.2 °F -4.3 °F 3.2 °F 67% 30.35 in 10.0 mi WNW 16.1 mph - N/A   Clear
2:35 PM 10.4 °F -5.4 °F 3.2 °F 73% 30.35 in 10.0 mi NW 13.8 mph - N/A   Clear
2:56 PM 10.4 °F -4.8 °F 3.2 °F 73% 30.34 in 7.0 mi NW 12.7 mph 19.6 mph N/A   Clear
3:15 PM 10.4 °F -6.6 °F 3.2 °F 73% 30.35 in 10.0 mi WNW 16.1 mph - N/A   Clear
3:36 PM 10.4 °F -4.8 °F 3.2 °F 73% 30.34 in 7.0 mi WNW 12.7 mph 19.6 mph N/A   Scattered Clouds
3:56 PM 10.4 °F -6.6 °F 3.2 °F 73% 30.34 in 10.0 mi WNW 16.1 mph 21.9 mph N/A   Scattered Clouds
4:15 PM 10.4 °F -6.0 °F 3.2 °F 73% 30.34 in 10.0 mi WNW 15.0 mph - N/A   Scattered Clouds
4:36 PM 10.4 °F -4.1 °F 3.2 °F 73% 30.33 in 7.0 mi WNW 11.5 mph - N/A   Mostly Cloudy
4:56 PM 10.4 °F -1.5 °F 3.2 °F 73% 30.33 in 7.0 mi West 8.1 mph - N/A   Mostly Cloudy
5:15 PM 10.4 °F -2.4 °F 3.2 °F 73% 30.33 in 10.0 mi West 9.2 mph - N/A   Overcast
5:36 PM 8.6 °F -1.3 °F 3.2 °F 79% 30.33 in 10.0 mi West 5.8 mph - N/A   Mostly Cloudy
5:56 PM 10.4 °F -6.6 °F 5.0 °F 79% 30.33 in 4.0 mi NW 16.1 mph - N/A Snow Light Snow
6:16 PM 10.4 °F -6.0 °F 3.2 °F 73% 30.34 in 7.0 mi NW 15.0 mph 21.9 mph N/A   Clear
6:56 PM 8.6 °F -7.7 °F -0.4 °F 67% 30.34 in 10.0 mi NW 13.8 mph 21.9 mph N/A   Clear
7:16 PM 6.8 °F -6.9 °F -2.2 °F 67% 30.35 in 10.0 mi NW 9.2 mph - N/A   Clear
7:36 PM 5.0 °F -6.9 °F -4.0 °F 66% 30.34 in 10.0 mi NW 6.9 mph - N/A   Clear
7:56 PM 1.4 °F -12.5 °F -5.8 °F 72% 30.33 in 10.0 mi WNW 8.1 mph - N/A   Clear
8:16 PM 1.4 °F -11.3 °F -4.0 °F 78% 30.33 in 10.0 mi WNW 6.9 mph - N/A   Clear
8:36 PM 3.2 °F -10.3 °F -2.2 °F 78% 30.33 in 10.0 mi WNW 8.1 mph - N/A   Scattered Clouds
8:56 PM 3.2 °F -9.1 °F -2.2 °F 78% 30.33 in 10.0 mi West 6.9 mph - N/A   Overcast
9:16 PM 3.2 °F -10.3 °F -4.0 °F 72% 30.33 in 10.0 mi WNW 8.1 mph - N/A   Mostly Cloudy
9:36 PM 1.4 °F -13.5 °F -4.0 °F 78% 30.33 in 10.0 mi WNW 9.2 mph - N/A   Scattered Clouds
9:56 PM 3.2 °F -11.3 °F -4.0 °F 72% 30.33 in 10.0 mi NW 9.2 mph - N/A   Mostly Cloudy
10:16 PM 3.2 °F -10.3 °F -4.0 °F 72% 30.35 in 5.0 mi NNW 8.1 mph - N/A   Haze
10:36 PM 3.2 °F -15.3 °F -5.8 °F 66% 30.35 in 10.0 mi NNW 15.0 mph 18.4 mph N/A   Scattered Clouds
10:56 PM 1.4 °F -18.2 °F -5.8 °F 72% 30.35 in 10.0 mi NNW 16.1 mph 20.7 mph N/A   Scattered Clouds
11:16 PM 1.4 °F -19.9 °F -5.8 °F 72% 30.35 in 4.0 mi NNW 19.6 mph 25.3 mph N/A   Haze
11:36 PM 1.4 °F -16.9 °F -5.8 °F 72% 30.35 in 4.0 mi NW 13.8 mph 18.4 mph N/A   Haze
11:56 PM 1.4 °F -19.4 °F -7.6 °F 66% 30.36 in 4.0 mi NNW 18.4 mph 25.3 mph N/A   Haze